Hutchinson, MN

11:44 PM CST on February 27, 2017 (GMT -0600)
Hutchinson Municipal-Butler

Weather History for KHCD - December, 2012

Change the Weather History Date:

Saturday, December 29, 2012

  Actual Average Record
Temperature  
Mean Temperature 4 °F -  
Max Temperature 14 °F 23 °F 57 °F (1999)
Min Temperature -6 °F 4 °F -19 °F (1993)
Degree Days  
Heating Degree Days 61    
Moisture  
Dew Point 5 °F    
Average Humidity 91    
Maximum Humidity 95    
Minimum Humidity 85    
Precipitation  
Precipitation 0.00 in - - ()
Sea Level Pressure  
Sea Level Pressure 30.08 in    
Wind  
Wind Speed 7 mph (West)    
Max Wind Speed 12 mph    
Max Gust Speed -    
Visibility 8 miles    
Events Snow    
Averages and records for this station are not official NWS values.
T = Trace of Precipitation, MM = Missing Value Source: NWS Daily Summary

Daily Weather History Graph

Daily Weather History Graph

Search for Another Location

Airport or City:

Trip Planner

Search our weather history database for the weather conditions in past years. The results will help you decide how hot, cold, wet, or windy it might be!

Date:

Astronomy

Dec. 29, 2012 Rise Set
Actual Time 7:55 AM CST 4:44 PM CST
Civil Twilight 7:21 AM CST 5:18 PM CST
Nautical Twilight 6:44 AM CST 5:55 PM CST
Astronomical Twilight 6:08 AM CST 6:31 PM CST
Moon 6:23 PM CST (12/29) 8:25 AM CST (12/29)
Length of Visible Light 9h 57m
Length of Day
8h 49m
Full, 98% of the Moon is Illuminated
Dec 29
Full
Jan 4
Last Quarter
Jan 11
New
Jan 18
First Quarter
Jan 26
Full

Hourly Weather History & Observations

Time (CST) Temp. Windchill Dew Point Humidity Pressure Visibility Wind Dir Wind Speed Gust Speed Precip Events Conditions
12:08 AM 9.1 °F -1.9 °F 7.5 °F 93% 30.03 in 10.0 mi West 6.9 mph - N/A   Overcast
12:29 AM 11.1 °F 0.4 °F 9.5 °F 93% 30.03 in 10.0 mi WNW 6.9 mph - N/A   Overcast
12:48 AM 11.7 °F 1.1 °F 10.2 °F 94% 30.02 in 10.0 mi WNW 6.9 mph - N/A Snow Light Snow
1:09 AM 11.7 °F 1.1 °F 10.2 °F 94% 30.02 in 10.0 mi WNW 6.9 mph - N/A   Overcast
1:28 AM 12.9 °F 2.6 °F 11.5 °F 94% 30.02 in 10.0 mi WNW 6.9 mph - N/A   Overcast
1:48 AM 14.0 °F 3.9 °F 12.7 °F 95% 30.02 in 10.0 mi WNW 6.9 mph - N/A Snow Light Snow
2:08 AM 14.0 °F 5.1 °F 12.7 °F 95% 30.03 in 10.0 mi West 5.8 mph - N/A   Overcast
2:29 AM 14.0 °F 2.9 °F 12.7 °F 95% 30.03 in 7.0 mi West 8.1 mph - N/A   Overcast
2:49 AM 14.0 °F 2.9 °F 12.7 °F 95% 30.03 in 7.0 mi West 8.1 mph - N/A   Overcast
3:08 AM 14.0 °F 2.9 °F 12.7 °F 95% 30.04 in 7.0 mi West 8.1 mph - N/A   Overcast
3:29 AM 12.7 °F 0.4 °F 11.3 °F 94% 30.04 in 7.0 mi West 9.2 mph - N/A   Overcast
3:49 AM 12.0 °F 2.7 °F 10.4 °F 93% 30.04 in 7.0 mi West 5.8 mph - N/A   Overcast
4:08 AM 11.7 °F 1.1 °F 10.2 °F 94% 30.04 in 5.0 mi West 6.9 mph - N/A Snow Light Snow
4:29 AM 11.7 °F -0.9 °F 10.2 °F 94% 30.05 in 7.0 mi West 9.2 mph - N/A   Overcast
4:48 AM 11.7 °F 0.0 °F 10.2 °F 94% 30.05 in 5.0 mi West 8.1 mph - N/A   Overcast
5:08 AM 11.7 °F -2.5 °F 10.2 °F 94% 30.05 in 7.0 mi West 11.5 mph - N/A Snow Light Snow
5:29 AM 11.7 °F -1.7 °F 10.2 °F 94% 30.05 in 7.0 mi West 10.4 mph - N/A Snow Light Snow
5:48 AM 11.7 °F -0.9 °F 10.2 °F 94% 30.05 in 7.0 mi West 9.2 mph - N/A Snow Light Snow
6:09 AM 11.7 °F 0.0 °F 10.2 °F 94% 30.06 in 7.0 mi West 8.1 mph - N/A   Overcast
6:29 AM 11.7 °F 0.0 °F 10.4 °F 95% 30.05 in 7.0 mi West 8.1 mph - N/A   Overcast
6:48 AM 11.7 °F 0.0 °F 10.4 °F 95% 30.05 in 3.0 mi West 8.1 mph - N/A   Overcast
7:08 AM 11.7 °F -1.7 °F 10.4 °F 95% 30.06 in 1.8 mi West 10.4 mph - N/A Snow Light Snow
7:29 AM 11.7 °F -2.5 °F 10.4 °F 95% 30.06 in 5.0 mi WSW 11.5 mph - N/A Snow Light Snow
7:48 AM 11.7 °F 2.3 °F 10.4 °F 95% 30.06 in 5.0 mi WSW 5.8 mph - N/A Snow Light Snow
8:09 AM 12.0 °F 2.7 °F 10.4 °F 93% 30.06 in 3.0 mi WSW 5.8 mph - N/A Snow Light Snow
8:29 AM 14.0 °F 3.9 °F 12.6 °F 94% 30.06 in 2.5 mi WSW 6.9 mph - N/A Snow Light Snow
8:49 AM 12.7 °F 0.4 °F 11.3 °F 94% 30.06 in 3.0 mi WSW 9.2 mph - N/A Snow Light Snow
9:08 AM 13.6 °F 0.7 °F 12.4 °F 95% 30.07 in 4.0 mi West 10.4 mph - N/A Snow Light Snow
9:28 AM 11.8 °F -0.7 °F 10.4 °F 94% 30.08 in 5.0 mi WSW 9.2 mph - N/A Snow Light Snow
9:48 AM 11.7 °F 2.3 °F 10.2 °F 94% 30.08 in 7.0 mi WSW 5.8 mph - N/A Snow Light Snow
10:08 AM 11.3 °F -0.4 °F 9.5 °F 92% 30.08 in 7.0 mi WSW 8.1 mph - N/A   Scattered Clouds
10:29 AM 9.1 °F -4.0 °F 7.3 °F 92% 30.09 in 10.0 mi WSW 9.2 mph - N/A   Clear
10:45 AM 9.1 °F -4.0 °F 7.3 °F 92% 30.09 in 10.0 mi WSW 9.2 mph - N/A   Clear
11:08 AM 9.1 °F -3.0 °F 7.2 °F 92% 30.08 in 7.0 mi WSW 8.1 mph - N/A   Clear
11:29 AM 9.1 °F -1.9 °F 6.8 °F 90% 30.08 in 5.0 mi WSW 6.9 mph - N/A   Clear
11:49 AM 9.1 °F -4.0 °F 6.6 °F 89% 30.08 in 7.0 mi WSW 9.2 mph - N/A   Clear
12:07 PM 9.1 °F -3.0 °F 5.9 °F 87% 30.06 in 10.0 mi West 8.1 mph - N/A   Clear
12:50 PM 8.6 °F -3.7 °F 5.0 °F 85% 30.06 in 10.0 mi WSW 8.1 mph - N/A   Scattered Clouds
1:10 PM 8.6 °F -4.7 °F 5.0 °F 85% 30.06 in 10.0 mi WSW 9.2 mph - N/A   Clear
1:30 PM 8.6 °F -2.6 °F 5.0 °F 85% 30.06 in 10.0 mi WSW 6.9 mph - N/A   Mostly Cloudy
1:50 PM 10.4 °F -0.4 °F 6.8 °F 85% 30.06 in 10.0 mi West 6.9 mph - N/A   Overcast
2:10 PM 10.4 °F -0.4 °F 6.8 °F 85% 30.06 in 10.0 mi WSW 6.9 mph - N/A   Overcast
2:30 PM 12.2 °F 1.7 °F 8.6 °F 85% 30.06 in 10.0 mi WSW 6.9 mph - N/A   Overcast
2:50 PM 12.2 °F 1.7 °F 8.6 °F 85% 30.06 in 10.0 mi WSW 6.9 mph - N/A   Overcast
3:10 PM 12.2 °F -1.0 °F 8.6 °F 85% 30.08 in 10.0 mi West 10.4 mph - N/A   Overcast
3:30 PM 10.4 °F -3.3 °F 6.8 °F 85% 30.08 in 10.0 mi West 10.4 mph - N/A   Scattered Clouds
3:50 PM 8.6 °F -2.6 °F 5.0 °F 85% 30.08 in 10.0 mi West 6.9 mph - N/A   Clear
4:10 PM 6.8 °F -4.8 °F 3.2 °F 85% 30.09 in 10.0 mi West 6.9 mph - N/A   Clear
4:30 PM 3.2 °F -9.1 °F 1.4 °F 92% 30.09 in 10.0 mi West 6.9 mph - N/A   Clear
4:50 PM 1.4 °F -6.2 °F -0.4 °F 92% 30.09 in 10.0 mi WSW 3.5 mph - N/A   Clear
5:10 PM 1.4 °F -6.2 °F -2.2 °F 85% 30.09 in 10.0 mi WSW 3.5 mph - N/A   Clear
5:30 PM 3.2 °F -6.2 °F 1.4 °F 92% 30.09 in 10.0 mi West 4.6 mph - N/A   Clear
5:50 PM 3.2 °F -9.1 °F 1.4 °F 92% 30.10 in 10.0 mi WSW 6.9 mph - N/A   Clear
6:05 PM 2.8 °F -8.2 °F 0.7 °F 91% 30.11 in 10.0 mi WSW 5.8 mph - N/A   Clear
6:08 PM 2.8 °F -10.7 °F 0.7 °F 91% 30.11 in 10.0 mi WSW 8.1 mph - N/A   Clear
6:28 PM 1.0 °F -11.7 °F -1.3 °F 90% 30.11 in 10.0 mi WSW 6.9 mph - N/A   Clear
6:49 PM 2.7 °F -9.7 °F 0.5 °F 91% 30.11 in 10.0 mi West 6.9 mph - N/A   Clear
7:08 PM 1.4 °F -6.2 °F -0.8 °F 91% 30.11 in 10.0 mi West 3.5 mph - N/A   Clear
7:28 PM 1.9 °F - -0.6 °F 89% 30.11 in 10.0 mi Calm Calm - N/A   Clear
7:48 PM 1.4 °F - -0.9 °F 90% 30.11 in 10.0 mi Calm Calm - N/A   Clear
8:09 PM 0.1 °F - -2.4 °F 89% 30.12 in 10.0 mi Calm Calm - N/A   Clear
8:48 PM -0.9 °F - -3.1 °F 91% 30.12 in 10.0 mi Calm Calm - N/A   Clear
9:09 PM -0.9 °F - -3.5 °F 89% 30.12 in 10.0 mi Calm Calm - N/A   Clear
9:29 PM -3.6 °F - -6.3 °F 88% 30.13 in 10.0 mi Calm Calm - N/A   Clear
9:49 PM -3.6 °F - -6.3 °F 88% 30.14 in 7.0 mi Calm Calm - N/A   Clear
10:07 PM -6.0 °F - -8.9 °F 87% 30.15 in 10.0 mi Calm Calm - N/A   Clear
10:28 PM -2.7 °F - -5.3 °F 89% 30.14 in 10.0 mi Calm Calm - N/A   Clear
10:48 PM -5.3 °F - -8.3 °F 87% 30.14 in 10.0 mi Calm Calm - N/A   Clear
11:08 PM -5.4 °F - -8.3 °F 87% 30.14 in 10.0 mi Calm Calm - N/A   Clear
11:29 PM -6.0 °F - -9.0 °F 87% 30.13 in 10.0 mi Calm Calm - N/A   Clear